Regional Weather Roundup
Issued by NWS

Home | Current Version | Previous Version | Graphics & Text | Print | Product List | Glossary On
Versions: 1 2 3 4 5 6 7 8 9 10 11 12 13 14 15 16 17 18 19 20 21 22 23 24 25 26 27
000
ASUS45 KSLC 310110
RWRUT

UTAH REGIONAL WEATHER ROUNDUP
NATIONAL WEATHER SERVICE SALT LAKE CITY UT
700 PM MDT TUE AUG 30 2016

UTZ001>011-023>025-310200-

NORTHERN UTAH

CITY           SKY/WX    TMP DP  RH WIND       PRES   REMARKS
BRIGHAM CITY     N/A     92  19   7 CALM      30.04F
HILL AFB       PTSUNNY   90  33  13 NW6       30.08S
LOGAN          MOSUNNY   89  38  16 NW6       30.05S
OGDEN          MOSUNNY   89  31  12 NW7       30.04F
PROVO AIRPORT  NOT AVBL
SALT LAKE CITY PTSUNNY   95  34  11 NW13      30.01S HX  90
VERNAL         CLEAR     84  34  16 SW6       30.13F
WENDOVER       PTSUNNY   91  30  11 E7        30.02S
HEBER CITY     MOSUNNY   84  32  15 CALM      30.12R
WEST JORDAN    MOSUNNY   90  38  16 NW12      30.05S

$$

UTZ012>022-026-027-310200-

SOUTHERN/CENTRAL UTAH

CITY           SKY/WX    TMP DP  RH WIND       PRES   REMARKS
BLANDING       CLEAR     80  40  23 S8        30.27S
BRYCE CANYON   MOSUNNY   75  36  24 S12       30.33S
CEDAR CITY     MOSUNNY   83  34  17 W5        30.14S
DELTA          SUNNY     90  27  10 CALM      30.06F
MILFORD        MOSUNNY   90  29  11 SE6       30.07S
MOAB/CYNLANDS  CLEAR     90  34  13 CALM      30.06F
PRICE          CLEAR     85  28  12 SW8       30.17S
ST GEORGE      PTCLDY    99  37  12 CALM      29.93S HX  93

$$

REGIONAL REPORTS     COLORADO/ARIZONA

CITY           SKY/WX    TMP DP  RH WIND       PRES   REMARKS
CRAIG, CO      PTCLDY    83  34  17 E9        30.20S
GRAND JUNCTION CLEAR     85  34  16 S5        30.10F
RIFLE          CLEAR     78  42  27 CALM      30.16S
MONTROSE       CLEAR     81  34  18 N3        30.20S
CORTEZ         CLEAR     78  45  30 NE5       30.21F
PAGE, AZ       SUNNY     92  29  10 E9        30.06F
GRAND CANYON   SUNNY     80  34  19 NE5       30.27S
KINGMAN        SUNNY     95  40  14 S5        29.98S HX  91
FLAGSTAFF      MOSUNNY   74  39  28 E3        30.28S

$$

REGIONAL REPORTS    NEVADA/IDAHO/WYOMING

CITY           SKY/WX    TMP DP  RH WIND       PRES   REMARKS
LAS VEGAS, NV  MOSUNNY  103  31   8 SE6       29.82F HX  96
ELY            PTSUNNY   84  22  10 SW13      30.16S
ELKO           MOSUNNY   86  28  12 SW7       30.02F
POCATELLO, ID  CLOUDY    92  28  10 S12       30.04S
BURLEY         CLOUDY    83  57  41 CALM      29.97S
EVANSTON, WY   SUNNY     79  21  11 E10       30.28S
ROCK SPRINGS   CLEAR     79  18  10 CALM      30.27S

$$




USA.gov is the U.S. government's official web portal to all federal, state and local government web resources and services.